Location: Nitra
(0.0000°N, 18.0833°E)
Time: 06:04:46
(UTC+01:00)

NOSS 3-3 (A) - Pass Details

Date: 24 January 2021
Orbit: 816 x 1396 km, 63.4° (Epoch: 01 March)

Event Time Altitude Azimuth Distance (km) Brightness Sun altitude
Rises 19:41:22 0° 200° (SSW) 3,406 7.4 -23.9°
Reaches altitude 10° 19:43:52 10° 198° (SSW) 2,434 6.6 -24.5°
Maximum altitude 19:49:22 74° 113° (ESE) 847 3.5 -25.8°
Enters shadow 19:49:33 73° 94° (E) 850 3.4 -25.8°
